Home > Weather > Santa Maria > Past weeks

Flag for Cabo Verde Past Weather in Santa Maria, Cabo Verde — Yesterday and Last 2 Weeks

Now
70 °F

Passing clouds.


Feels Like: 70 °F
Forecast: 72 / 80 °F
Wind: 16 mph from Northeast

Location: Sal

Current Time: May 30, 2016 at 6:06:57 AM

Latest Report: May 30, 2016 at 5:00 AM


Visibility: N/A

Pressure: 29.98 "Hg

Humidity: 88%

Dew Point: 66 °F

Location of Santa MariaLocation

Past Weather in Santa Maria — Graph

°F

Santa Maria Temperature Yesterday

Maximum temperature yesterday: 81 °F (at 11:00 AM)
Minimum temperature yesterday: 72 °F (at 12:00 AM)
Average temperature yesterday: 75 °F

High & Low Weather Summary for the Past Weeks

 TemperatureHumidityPressure
High81 °F (May 24, 1:00 PM)88% (May 20, 2:00 AM)30.15 "Hg (May 20, 2:00 AM)
Low68 °F (May 16, 5:00 AM)51% (May 21, 11:00 AM)29.86 "Hg (May 15, 9:00 AM)
Average73 °F69%30.04 "Hg
* Reported May 15 5:00 AM — May 30 5:00 AM, Santa Maria, Weather by CustomWeather, © 2016

Note: Actual official high and low records may vary slightly from our data, if they occured in-between our weather recording intervals... More about our weather records

Advertising

Santa Maria Weather History for the Previous 24 Hours

Scroll right to see more
 ConditionsComfort  
Time TempWeatherWind HumidityBarometerVisibility
5:00 AM
Mon, May 30
70 °FPassing clouds.16 mph88%29.98 "HgN/A
4:00 AM70 °FScattered clouds.14 mph88%29.95 "HgN/A
3:00 AM70 °FPassing clouds.16 mph88%29.95 "HgN/A
2:00 AM72 °FPassing clouds.18 mph83%29.98 "HgN/A
1:00 AM72 °FPassing clouds.20 mph83%30.01 "HgN/A
12:00 AM72 °FPassing clouds.23 mph83%30.01 "HgN/A
11:00 PM
Sun, May 29
72 °FPassing clouds.23 mph83%30.04 "HgN/A
10:00 PM72 °FPassing clouds.21 mph83%30.04 "HgN/A
9:00 PM72 °FPassing clouds.18 mph83%30.04 "HgN/A
8:00 PM72 °FPassing clouds.18 mph83%30.04 "HgN/A
7:00 PM73 °FPassing clouds.20 mph78%30.04 "HgN/A
6:00 PM77 °FPassing clouds.21 mph69%30.01 "HgN/A
5:00 PM79 °FPassing clouds.21 mph61%29.98 "HgN/A
4:00 PM81 °FPassing clouds.20 mph58%30.01 "HgN/A
3:00 PM81 °FPassing clouds.21 mph58%30.01 "HgN/A
2:00 PM81 °FPassing clouds.17 mph62%30.04 "HgN/A
1:00 PM81 °FPassing clouds.21 mph62%30.07 "HgN/A
12:00 PM81 °FPassing clouds.17 mph58%30.09 "HgN/A
11:00 AM81 °FPassing clouds.17 mph58%30.09 "HgN/A
10:00 AM79 °FPassing clouds.16 mph61%30.09 "HgN/A
9:00 AM75 °FScattered clouds.16 mph69%30.09 "HgN/A
8:00 AM75 °FScattered clouds.18 mph69%30.07 "HgN/A
7:00 AM72 °FScattered clouds.13 mph78%30.07 "HgN/A
6:00 AM72 °FScattered clouds.12 mph78%30.07 "HgN/A
Weather by CustomWeather, © 2016

See weather overviewHow to use our weather pages